Regional Weather Roundup
Issued by NWS Cleveland, OH

Home | Current Version | Previous Version | Graphics & Text | Print | Product List | Glossary On
Versions: 1 2 3 4 5 6 7 8 9 10 11 12 13 14 15 16 17 18 19 20 21 22 23 24 25 26 27 28 29 30 31 32 33 34 35 36 37 38 39 40 41 42 43 44 45 46 47 48 49 50
000
ASUS41 KCLE 102110
RWRCLE
OHIO REGIONAL WEATHER ROUNDUP
NATIONAL WEATHER SERVICE CLEVELAND, OH
500 PM EDT THU JUL 10 2014

NOTE: "FAIR" INDICATES FEW OR NO CLOUDS BELOW 12,000 FEET WITH NO
SIGNIFICANT WEATHER AND/OR OBSTRUCTIONS TO VISIBILITY.

OHZ001>008-015>018-024>027-034-035-043-044-102200-
   NORTHWEST OHIO

CITY           SKY/WX    TMP DP  RH WIND       PRES   REMARKS
DEFIANCE       MOSUNNY   77  50  38 VRB3      30.14F
FINDLAY        MOSUNNY   80  53  39 N5        30.12F
TOLEDO EXPRESS PTSUNNY   77  54  44 E5        30.12F
TOLEDO EXEC    PTSUNNY   76  57  51 NE9       30.14F
LIMA           MOSUNNY   78  55  44 N8        30.13F
$$

OHZ009>014-019>023-028>033-038-089-102200-
   NORTHEAST OHIO

CITY           SKY/WX    TMP DP  RH WIND       PRES   REMARKS
CLE-HOPKINS    MOSUNNY   76  59  55 NE14      30.15S
CLE-LAKEFRONT  SUNNY     74  62  66 N14G22    30.11S
CUY CO. ARPT   MOSUNNY   77  61  57 NE14      30.14S
LORAIN-ELYRIA  MOSUNNY   79  59  50 NE10      30.14S
ASHTABULA      SUNNY     74  57  55 NE7       30.15F
AKRON-CANTON   PTSUNNY   80  55  42 CALM      30.11F
WOOSTER        PTSUNNY   78  59  51 N9        30.12F
MANSFIELD      SUNNY     78  52  40 NW8       30.13F
YOUNGSTOWN     MOSUNNY   79  55  43 NE6       30.12F
$$

OHZ042-051>053-060>062-070>072-077>081-102200-
  SOUTHWEST OHIO

CITY           SKY/WX    TMP DP  RH WIND       PRES   REMARKS
CINC-COVINGTON MOSUNNY   83  54  36 N12       30.10F
CINC-LUNKEN    PTSUNNY   79  58  48 N8        30.09F
HAMILTON       SUNNY     81  59  47 N10       30.11F
DAYTON         MOSUNNY   79  56  45 NW9       30.14F
WRIGHT-PAT AFB SUNNY     78  55  44 N8        30.12F
DAYTON GENERAL MOSUNNY   79  56  45 NW9       30.11F
WILMINGTON     MOSUNNY   80  58  46 NE9       30.11F
$$

OHZ036-037-039>041-045>050-054>059-063>069-073>076-082>088-102200-
  CENTRAL AND SOUTHEAST OHIO

CITY           SKY/WX    TMP DP  RH WIND       PRES   REMARKS
COLUMBUS       PTSUNNY   83  56  39 NW8       30.09F
OSU AIRPORT    MOSUNNY   81  57  43 VRB6      30.10F
BOLTON FIELD   SUNNY     81  57  44 NW9       30.10F
RICKENBACK AFB MOSUNNY   82  50  32 N7        30.08F
NEWARK         SUNNY     80  57  45 N6        30.10S
MARION         SUNNY     79  55  43 N7        30.13S
LANCASTER      MOSUNNY   80  58  46 N6        30.09F
ZANESVILLE     SUNNY     80  57  45 NW10      30.09F
NEW PHILLY     PTSUNNY   78  60  53 N7        30.10S
$$


USA.gov is the U.S. government's official web portal to all federal, state and local government web resources and services.